Flag for Russia Weather past 2 weeks in Novorossiysk, Russia

Now
43 °F

Sunny.


Feels Like: 36 °F
Forecast: 43 / 50 °F
Wind: 13 mph from East

Location: Anapa / Vitiazevo

Current Time: Jan 28, 2015 at 5:30:22 PM

Latest Report: Jan 28, 2015 at 5:00 PM


Visibility: 10 mi

Pressure: 29.77 "Hg

Humidity: 81%

Dew point: 37 °F

Location of NovorossiyskLocation

Historic Weather in Novorossiysk — Graph

°F

Novorossiysk temperature yesterday

Maximum temperature yesterday: 50 °F (at 11:30 AM)
Minimum temperature yesterday: 34 °F (at 7:30 AM)
Average temperature yesterday: 44 °F

Past Weeks' High & Low Weather Summary

 TemperatureHumidityPressure
High57 °F (Jan 22, 1:00 PM)100% (Jan 16, 1:00 AM)30.39 "Hg (Jan 16, 1:00 AM)
Low27 °F (Jan 18, 1:00 AM)59% (Jan 22, 2:00 PM)29.74 "Hg (Jan 28, 3:00 PM)
Average43 °F83%30.15 "Hg
* Reported Jan 13 4:00 PM — Jan 28 4:30 PM, Novorossiysk, Weather by CustomWeather, © 2014

Note: Actual official high and low records may vary slightly from our data, if they occured in-between our weather recording intervals... More about our weather records

Advertising

Novorossiysk weather history for previous 24 hours

 ConditionsComfort  
Time TempWeatherWind HumidityBarometerVisibility
4:30 PM
Jan 28
43 °FSunny.13 mph76%29.77 "Hg10 mi
4:00 PM45 °FSunny.13 mph76%29.77 "Hg10 mi
3:30 PM46 °FSunny.10 mph76%29.77 "Hg10 mi
3:00 PM46 °FSunny.13 mph71%29.74 "Hg10 mi
2:30 PM48 °FSunny.13 mph71%29.77 "Hg10 mi
2:00 PM48 °FSunny.10 mph71%29.77 "Hg10 mi
1:30 PM48 °FSunny.6 mph71%29.77 "Hg10 mi
1:00 PM50 °FSunny.8 mph67%29.80 "Hg10 mi
12:30 PM48 °FSunny.10 mph71%29.80 "Hg10 mi
12:00 PM46 °FSunny.10 mph76%29.80 "Hg10 mi
11:30 AM46 °FSunny.3 mph76%29.83 "Hg10 mi
11:00 AM46 °FSunny.6 mph76%29.83 "Hg10 mi
10:30 AM46 °FSunny.8 mph76%29.83 "Hg10 mi
10:00 AM45 °FSunny.8 mph81%29.83 "Hg10 mi
9:30 AM45 °FSunny.3 mph81%29.83 "Hg10 mi
9:00 AM41 °FSunny.3 mph93%29.86 "Hg10 mi
8:30 AM39 °FClear.3 mph93%29.86 "Hg10 mi
8:00 AM37 °FClear.3 mph93%29.86 "Hg10 mi
7:30 AM37 °FClear.3 mph93%29.86 "Hg10 mi
7:00 AM36 °FClear.1 mph100%29.86 "Hg10 mi
6:30 AM36 °FClear.3 mph100%29.86 "Hg10 mi
6:00 AM36 °FClear.3 mph93%29.89 "Hg10 mi
5:00 AM36 °FClear.6 mph93%29.89 "Hg5 mi
4:00 AM36 °FClear.3 mph93%29.92 "Hg4 mi
3:00 AM36 °FFog.3 mph100%29.92 "Hg2 mi
2:00 AM36 °FFog.3 mph93%29.95 "Hg2 mi
1:00 AM36 °FFog.1 mph100%29.98 "Hg1 mi
12:00 AM39 °FFog.6 mph93%29.98 "Hg2 mi
11:00 PM
Jan 27
39 °FPassing clouds.6 mph93%30.01 "Hg4 mi
10:00 PM45 °FOvercast.6 mph81%30.04 "HgN/A
9:00 PM46 °FPassing clouds.3 mph82%30.04 "HgN/A
8:00 PM46 °FPassing clouds.3 mph82%30.04 "HgN/A
7:30 PM46 °FPassing clouds.3 mph82%30.07 "HgN/A
7:00 PM48 °FPassing clouds.6 mph76%30.07 "HgN/A
6:30 PM46 °FPartly sunny.6 mph82%30.07 "HgN/A
6:00 PM48 °FPartly sunny.8 mph76%30.07 "HgN/A
5:30 PM48 °FPartly sunny.6 mph76%30.07 "HgN/A
5:00 PM48 °FPartly sunny.8 mph76%30.07 "HgN/A
Weather by CustomWeather, © 2014

See weather overviewHow to use our weather pages